Regional Weather Roundup
Issued by NWS

Home | Current Version | Previous Version | Graphics & Text | Print | Product List | Glossary On
Versions: 1 2 3 4 5 6 7 8 9 10 11 12 13 14 15 16 17 18 19 20 21 22 23 24 25 26 27 28 29 30 31 32 33 34 35 36 37 38 39 40 41 42 43 44 45 46 47 48 49 50
000
ASUS45 KTFX 102104
RWRMT
MONTANA HOURLY WEATHER ROUNDUP
NATIONAL WEATHER SERVICE GREAT FALLS MT
304 PM MDT THU JUL 10 2014

NOTE: "FAIR" INDICATES FEW OR NO CLOUDS BELOW 12000 FEET WITH NO
SIGNIFICANT WEATHER AND/OR OBSTRUCTIONS TO VISIBILITY.

* THESE STATIONS ARE NOT UNDER NWS QUALITY CONTROL. THEY DO NOT
   REPORT WEATHER SUCH AS PRECIPITATION OR FOG.

MTZ001>007-043-102200-
WEST OF THE DIVIDE
CITY           SKY/WX    TMP DP  RH WIND       PRES   REMARKS
KALISPELL      SUNNY     88  39  18 W12       29.81F
MISSOULA       SUNNY     90  41  18 VRB3      29.84F
BUTTE          SUNNY     84  36  18 SW9G18    30.00F
MULLAN PASS    SUNNY     70  41  35 NW3       30.07S
* ESSEX        N/A      N/A N/A N/A N/A        N/A
* LINCOLN      N/A       84  40  21 W5G18      N/A
* LOOKOUT PASS N/A       76  43  31 SE5G11     N/A
* POLSON       N/A       90  45  21 SW3G10     N/A
* RONAN APT    SUNNY     88  46  23 W7         N/A
* SEELEY LAKE  N/A       87  37  17 NW6G16     N/A
* THOMP F APT  SUNNY     76  50  40 E7G16      N/A
* YAAK HILL    N/A       88  48  25 SW1        N/A
$$

MTZ008-052>055-102200-
SOUTHWEST MONTANA
CITY           SKY/WX    TMP DP  RH WIND       PRES   REMARKS
BOZEMAN        SUNNY     86  48  27 VRB5      29.93F
DILLON         SUNNY     82  43  25 VRB6      29.97F
W YELLOWSTONE  PTCLDY    72  50  46 SW16G21   30.12F
* THREE FORKS  SUNNY     90  48  24 SW10G15    N/A
* BOULDER HILL N/A       83  43  24 SW8G15     N/A
* MONIDA PASS  N/A       79  35  20 N/A        N/A
* RAYNOLDS PAS N/A       73  51  46 SE17G22    N/A
* WHITEHALL    N/A       91  46  21 SW10G17    N/A
* WISE RIVER   N/A       82  38  21 NW13G20    N/A
$$

MTZ009>010-012-014-046-048-049-054-102200-
EAST SLOPES AND CENTRAL MONTANA
CITY           SKY/WX    TMP DP  RH WIND       PRES   REMARKS
CUT BANK       SUNNY     81  52  37 VRB5      29.87F
GREAT FALLS    SUNNY     90  36  15 VRB6G18   29.83F
HELENA         SUNNY     91  39  16 E8        29.85F
* CONRAD       SUNNY     82  55  40 N/A        N/A   HI  81
* DEARBORN     N/A       90  38  16 S12G23     N/A
* EAST GLACIER N/A       77  39  26 W20G27     N/A
* MONARCH      N/A       81  35  19 S3G18      N/A
* PENDROY      N/A       81  54  39 S2         N/A
* SAINT MARY   N/A       81  41  24 SW8G18     N/A
* SWEET GRASS  N/A       76  52  43 NW3G8      N/A
$$

MTZ011-013-016-021-035-040-045-047-050-051-102200-
NORTH CENTRAL MONTANA
CITY           SKY/WX    TMP DP  RH WIND       PRES   REMARKS
HAVRE          SUNNY     86  52  31 W5        29.81F
LEWISTOWN      SUNNY     86  41  20 NE5       29.90F
* CHESTER      N/A       84  46  26 SW3G12     N/A
* DENTON       N/A       86  50  29 NW3G13     N/A
* GEYSER       N/A       88  47  24 W8G16      N/A
* JUDITH GAP   N/A       84  48  29 N/A        N/A
* LOMA         N/A       87  46  24 W9         N/A
$$

MTZ017>020-022>027-061-062-102200-
NORTHEAST MONTANA
CITY           SKY/WX    TMP DP  RH WIND       PRES   REMARKS
GLASGOW        SUNNY     90  54  29 NW21G29   29.75S
GLENDIVE       SUNNY     91  57  32 W8        29.77F
JORDAN         SUNNY     93  43  18 NW20G29   29.79S
SIDNEY         SUNNY     91  61  37 SW8       29.75S
WOLF POINT     SUNNY     91  55  30 W13G26    29.72F
* BEAVER HILL  N/A       88  62  42 SW6G14     N/A   HI  88
* CIRCLE       N/A       88  58  36 W7G18      N/A
* LINDSAY DVD  N/A       86  58  39 W9         N/A
* NAVAJO       N/A       86  64  48 NW14G20    N/A   HI  87
$$

MTZ028>042-056>058-102200-
SOUTHCENTRAL AND SOUTHEAST MONTANA
CITY           SKY/WX    TMP DP  RH WIND       PRES   REMARKS
BAKER          SUNNY     90  55  31 NW15G20   29.82F
BILLINGS       SUNNY     90  39  17 E3        29.86F
LIVINGSTON     SUNNY     90  41  18 VRB6      29.92F
MILES CITY     SUNNY     93  46  20 W14G20    29.77F
* LAUREL APT   SUNNY     90  46  22 E5         N/A
* ROUNDUP APT  SUNNY     90  45  21 N/A        N/A
* ALZADA       N/A       84  58  41 W4         N/A   HI  83
* HYSHAM       N/A       90  49  24 NW11G16    N/A
* LAME DEER    N/A       82  50  33 NW4G19     N/A
* REED POINT   N/A       92  50  24 W13        N/A
* ROSCOE HILL  N/A       85  44  24 N4         N/A
$$

REGIONAL REPORTS...DAKOTAS
CITY           SKY/WX    TMP DP  RH WIND       PRES   REMARKS
WILLISTON      SUNNY     90  59  35 S12G20    29.72F
DICKINSON      SUNNY     81  64  56 S13       29.80F HI  83
CROSBY         SUNNY     84  63  49 SW12      29.72F HI  85
WATFORD CITY   N/A       84  64  51 S9G17     29.74F HI  85
BISMARCK       CLOUDY    77  64  64 SE5       29.82F
GRAND FORKS    CLOUDY    81  59  47 SE16      29.85F HI  81
FARGO          PTSUNNY   82  57  43 SE17      29.86F HI  82
BUFFALO SD     PTCLDY    88  64  45 SW7       29.77F HI  89
RAPID CITY     TSTM      73  66  79 W9        29.90R
$$

REGIONAL REPORTS...WYOMING/IDAHO/WASHINGTON
CITY           SKY/WX    TMP DP  RH WIND       PRES   REMARKS
GILLETTE       CLOUDY    82  54  38 NW8       29.95S
SHERIDAN       PTSUNNY   84  48  29 CALM      29.92F
CODY           PTSUNNY   82  52  35 S17       29.97F
YELLOWSTONE LA PTCLDY    57  54  90 N/A       30.24R
SALMON         SUNNY     84  45  26 N5        29.88F
MULLAN PASS    SUNNY     70  41  35 NW3       30.07S
SAND POINT     SUNNY     82  52  35 SW9       29.84F
SPOKANE        SUNNY     86  32  14 SW9       29.85F

$$



USA.gov is the U.S. government's official web portal to all federal, state and local government web resources and services.